カタログに戻る

STARLINK-31751

運用中通信VLEO
NORAD 59574·PAYLOAD·🇺🇸 United States

打ち上げ Apr 23, 2024 から Cape Canaveral Space Force Station

Loading…

次のパス (今後24時間)

TLE

最新Source: CelesTrak SupGP

元期: Sep 14, 2026, 22:14 UTC

1 59574C 24076L   26257.92687500  .00011289  00000+0  40886-3 0  2574
2 59574  43.0034  20.6171 0001807 274.8428 326.3842 15.27575969    19

AllMySatでSTARLINK-31751をリアルタイム追跡

Download on the App Store